Back to catalog

ONEWEB-0284

AliveCommunicationsPO
NORAD 49002·PAYLOAD·🇬🇧 United Kingdom

Launched Jul 1, 2021 from Vostochny Cosmodrome

Loading…

Next Passes (next 24 hours)

TLE

FreshSource: CelesTrak SupGP

Epoch: Sep 14, 2026, 12:51 UTC

1 49002C 21060AM  26257.53555972 -.00002771  00000+0 -72584-2 0  2570
2 49002  87.9154 211.0324 0001765  77.2529 321.3747 13.16597768    16

Track ONEWEB-0284 in real time with AllMySat

Download on the App Store